Regional Weather Roundup
Issued by NWS

Home | Current Version | Previous Version | Graphics & Text | Print | Product List | Glossary On
Versions: 1 2 3 4 5 6 7 8 9 10 11 12 13 14 15 16 17 18 19 20 21 22 23 24 25 26 27 28 29 30 31 32 33 34 35 36 37 38 39 40 41 42 43 44 45 46 47 48 49 50
000
ASUS43 KOAX 161010
RWRNE

WEATHER ROUNDUP FOR NEBRASKA
NATIONAL WEATHER SERVICE OMAHA NE
400 AM CST SAT DEC 16 2017

NOTES: SATELLITE DATA IS BEING USED TO AUGMENT CLOUD COVER ABOVE
       12000 FEET.
       "FAIR" INDICATES FEW OR NO CLOUDS BELOW 12,000 FEET WITH NO
       SIGNIFICANT WEATHER AND/OR OBSTRUCTIONS TO VISIBILITY.


NEZ001>004-019>022-054>056-161100-
NEBRASKA PANHANDLE

CITY           SKY/WX    TMP DP  RH WIND       PRES   REMARKS
SCOTTSBLUFF    CLOUDY    31   9  39 NE3       29.75R
ALLIANCE       CLOUDY    22  12  65 SW3       29.75R
CHADRON        CLOUDY    26  16  65 W3        29.77R
GORDON         FAIR      28  20  72 NW5       29.74R WCI  23
KIMBALL        CLOUDY    35   8  32 W5        29.78F WCI  31
SIDNEY         CLOUDY    36   7  29 W9        29.76S WCI  29
$$

NEZ057>060-069>072-079>082-161100-
SOUTHWEST NEBRASKA

CITY           SKY/WX    TMP DP  RH WIND       PRES   REMARKS
NORTH PLATTE   CLOUDY    28  21  75 W7        29.74F WCI  21
IMPERIAL       CLOUDY    26  13  57 SW5       29.76S WCI  20
LEXINGTON      PTCLDY    28  17  64 W3        29.75S
MCCOOK         CLOUDY    26  12  55 W9        29.76S WCI  17
OGALLALA       CLOUDY    27  16  62 W7        29.75F WCI  19
$$

NEZ005>010-023>029-035>040-094-161100-
NORTH CENTRAL NEBRASKA

CITY           SKY/WX    TMP DP  RH WIND       PRES   REMARKS
VALENTINE      CLOUDY    28  22  78 W6        29.73R WCI  22
AINSWORTH      CLOUDY    32  24  73 NW6       29.71S WCI  26
BROKEN BOW     CLOUDY    39  19  44 NW7       29.72F WCI  34
O`NEILL        CLOUDY    30  25  79 W5        29.71R WCI  26
ORD            CLOUDY    26  21  81 N3        29.72R
THEDFORD       CLOUDY    30  20  65 CALM      29.74S
$$

NEZ041-046>049-061>064-073>077-083>087-161100-
SOUTH CENTRAL NEBRASKA

CITY           SKY/WX    TMP DP  RH WIND       PRES   REMARKS
GRAND ISLAND   CLOUDY    32  19  58 W9        29.73S WCI  24
AURORA         CLOUDY    29  19  66 SW8       29.73S WCI  21
HASTINGS       CLOUDY    30  15  53 SW8       29.73F WCI  22
HEBRON         CLOUDY    34  21  58 SW5       29.77F WCI  30
HOLDREGE       CLOUDY    31  14  48 W5        29.74F WCI  26
KEARNEY        CLOUDY    29  16  58 SW3       29.74S
YORK           CLOUDY    28  19  69 SW7       29.73F WCI  21
$$

NEZ011>018-030>034-042>045-161100-
NORTHEAST NEBRASKA

CITY           SKY/WX    TMP DP  RH WIND       PRES   REMARKS
NORFOLK        CLEAR     33  22  63 SW5       29.71R WCI  29
ALBION         PTCLDY    31  24  74 CALM      29.72S
BLAIR          PTCLDY    37  22  56 S9        29.71F WCI  30
COLUMBUS       CLOUDY    29  22  75 W5        29.73S WCI  24
FREMONT        CLOUDY    38  20  48 SW9       29.73S WCI  32
TEKAMAH        CLOUDY    31  19  61 VRB3      29.72S
WAYNE          CLOUDY    28  21  74 CALM      29.69S
$$

NEZ050>053-065>068-078-088>093-161100-
SOUTHEAST NEBRASKA

CITY           SKY/WX    TMP DP  RH WIND       PRES   REMARKS
LINCOLN        CLEAR     34  20  56 S3        29.76S
OMAHA EPPLEY   PTCLDY    31  22  69 SE8       29.74S WCI  23
BEATRICE       CLOUDY    35  24  64 S5        29.77F WCI  30
FALLS CITY     CLEAR     36  24  62 S9        29.79F WCI  29
NEBRASKA CITY  CLEAR     39  25  57 SW16      29.75S WCI  30
PLATTSMOUTH    CLEAR     38  23  55 SW6       29.75R WCI  33
$$

NEZ044-045-051>053-067-161100-
OMAHA AREA

CITY           SKY/WX    TMP DP  RH WIND       PRES   REMARKS
OMAHA EPPLEY   PTCLDY    31  22  69 SE8       29.74S WCI  23
BLAIR          PTCLDY    37  22  56 S9        29.71F WCI  30
FREMONT        CLOUDY    38  20  48 SW9       29.73S WCI  32
MILLARD        CLEAR     41  22  47 CALM      29.74S
OFFUTT AFB     CLOUDY    28  20  72 CALM      29.74S
PLATTSMOUTH    CLEAR     38  23  55 SW6       29.75R WCI  33
WAHOO          FAIR      37  20  51 SW7       29.72F WCI  31
$$




USA.gov is the U.S. government's official web portal to all federal, state and local government web resources and services.